User: anonymous   Login
Location: Unspecified
(0.0000°N, 0.0000°E)
Time: 00:40:58
(UTC+00:00)
Language:

Triad OI-1X - Orbit

View from above orbital plane
View from above orbital plane
View from above satellite
View from above satellite

Ground track
Ground track

The orbit data is extracted from the following two-line orbital elements,

1  6173U 72069A   17206.63737573 +.00000091 +00000-0 +20340-4 0  9991
2  6173 089.8724 229.6102 0051305 323.1336 151.2801 14.48812616359886
Epoch (UTC): 25 July 2017 15:17:49
Eccentricity: 0.0051305
inclination: 89.8724°
perigee height: 693 km
apogee height: 766 km
right ascension of ascending node: 229.6102°
argument of perigee: 323.1336°
revolutions per day: 14.48812616
mean anomaly at epoch: 151.2801°
orbit number at epoch: 35988

The dashed part of the orbit path shows where the satellite is in the earth's shadow,  

DLR